Vancouver, WA

7:51 PM PST on December 09, 2016 (GMT -0800)
Portland International

Weather History for KPDX - November, 2012

Change the Weather History Date:

Tuesday, November 13, 2012

  Actual Average Record
Temperature  
Mean Temperature 51 °F 47 °F  
Max Temperature 54 °F 54 °F 71 °F (1999)
Min Temperature 47 °F 41 °F 18 °F (1978)
Degree Days  
Heating Degree Days 14 18  
Month to date heating degree days 174 210  
Since 1 July heating degree days 502 628  
Cooling Degree Days 0 0  
Month to date cooling degree days 0 0  
Year to date cooling degree days 436 424  
Moisture  
Dew Point 47 °F    
Average Humidity 89    
Maximum Humidity 100    
Minimum Humidity 77    
Precipitation  
Precipitation T in 0.19 in 1.37 in (1941)
Month to date precipitation 1.92 2.25  
Year to date precipitation 36.57 27.16  
Snow  
Snow 0.00 in - - ()
Month to date snowfall 0.0  
Snow Depth 0.00 in    
Sea Level Pressure  
Sea Level Pressure 30.21 in    
Wind  
Wind Speed 6 mph (ESE)    
Max Wind Speed 13 mph    
Max Gust Speed 15 mph    
Visibility 10 miles    
Events      
T = Trace of Precipitation, MM = Missing Value Source: NWS Daily Summary

Daily Weather History Graph

Daily Weather History Graph

Search for Another Location

Airport or City:

Trip Planner

Search our weather history database for the weather conditions in past years. The results will help you decide how hot, cold, wet, or windy it might be!

Date:

Astronomy

Nov. 13, 2012 Rise Set
Actual Time 7:07 AM PST 4:41 PM PST
Civil Twilight 6:35 AM PST 5:13 PM PST
Nautical Twilight 5:59 AM PST 5:49 PM PST
Astronomical Twilight 5:24 AM PST 6:24 PM PST
Moon 6:53 AM PST (11/13) 4:37 PM PST (11/13)
Length of Visible Light 10h 37m
Length of Day
9h 33m
Waning Crescent, 0% of the Moon is Illuminated
Nov 13
Waning Crescent
Nov 13
New
Nov 20
First Quarter
Nov 28
Full
Dec 6
Last Quarter

Hourly Weather History & Observations

Time (PST) Temp. Windchill Dew Point Humidity Pressure Visibility Wind Dir Wind Speed Gust Speed Precip Events Conditions
12:11 AM 48.2 °F - 46.4 °F 93% 30.26 in 10.0 mi East 8.1 mph - N/A   Overcast
12:53 AM 46.9 °F - 46.0 °F 97% 30.25 in 10.0 mi SE 6.9 mph - N/A   Scattered Clouds
1:05 AM 46.4 °F 41.9 °F 46.4 °F 100% 30.26 in 10.0 mi ESE 9.2 mph - N/A   Scattered Clouds
1:53 AM 46.9 °F - 46.0 °F 97% 30.25 in 10.0 mi SE 6.9 mph - N/A   Mostly Cloudy
2:53 AM 46.9 °F - 46.0 °F 97% 30.25 in 10.0 mi ESE 8.1 mph - N/A   Mostly Cloudy
3:25 AM 48.2 °F - 46.4 °F 93% 30.24 in 10.0 mi ESE 4.6 mph - N/A   Overcast
3:44 AM 48.2 °F - 46.4 °F 93% 30.24 in 10.0 mi ESE 6.9 mph - N/A   Overcast
3:53 AM 48.2 °F - 48.2 °F 100% 30.24 in 10.0 mi ESE 4.6 mph - N/A   Overcast
4:35 AM 48.2 °F - 46.4 °F 93% 30.23 in 10.0 mi SE 8.1 mph - N/A   Overcast
4:53 AM 48.0 °F - 46.9 °F 96% 30.23 in 10.0 mi ESE 9.2 mph - N/A   Overcast
5:53 AM 48.9 °F - 46.9 °F 93% 30.23 in 10.0 mi ESE 8.1 mph - N/A   Overcast
6:14 AM 48.2 °F - 46.4 °F 93% 30.23 in 10.0 mi East 6.9 mph - N/A   Overcast
6:53 AM 48.9 °F - 46.9 °F 93% 30.22 in 10.0 mi East 9.2 mph - N/A   Overcast
7:53 AM 48.0 °F - 46.0 °F 93% 30.22 in 10.0 mi ESE 9.2 mph - N/A   Overcast
8:53 AM 48.9 °F - 46.9 °F 93% 30.22 in 10.0 mi ESE 6.9 mph - N/A   Overcast
9:53 AM 50.0 °F - 46.9 °F 89% 30.22 in 10.0 mi ESE 8.1 mph - N/A   Overcast
10:46 AM 51.8 °F - 46.4 °F 82% 30.22 in 10.0 mi ESE 6.9 mph - N/A   Overcast
10:53 AM 52.0 °F - 48.0 °F 86% 30.21 in 10.0 mi ESE 9.2 mph - N/A   Overcast
11:53 AM 52.0 °F - 46.9 °F 83% 30.19 in 10.0 mi SE 8.1 mph - N/A   Overcast
12:53 PM 53.1 °F - 46.9 °F 80% 30.18 in 10.0 mi East 4.6 mph - N/A   Overcast
1:53 PM 54.0 °F - 46.9 °F 77% 30.17 in 10.0 mi Calm Calm - N/A   Overcast
2:53 PM 54.0 °F - 46.9 °F 77% 30.17 in 10.0 mi Calm Calm - N/A   Overcast
3:53 PM 54.0 °F - 48.0 °F 80% 30.17 in 10.0 mi Calm Calm - N/A   Overcast
4:53 PM 53.1 °F - 46.9 °F 80% 30.17 in 10.0 mi Calm Calm - N/A   Overcast
5:53 PM 51.1 °F - 46.9 °F 86% 30.17 in 10.0 mi East 4.6 mph - N/A   Overcast
6:53 PM 51.1 °F - 46.9 °F 86% 30.17 in 10.0 mi ESE 3.5 mph - N/A   Overcast
7:35 PM 51.8 °F - 46.4 °F 82% 30.17 in 10.0 mi ESE 6.9 mph - N/A   Overcast
7:53 PM 51.1 °F - 46.9 °F 86% 30.18 in 10.0 mi ESE 10.4 mph - N/A   Overcast
8:53 PM 51.1 °F - 48.9 °F 92% 30.19 in 10.0 mi ESE 6.9 mph - N/A   Mostly Cloudy
9:36 PM 51.8 °F - 48.2 °F 88% 30.19 in 10.0 mi ESE 9.2 mph - N/A   Overcast
9:53 PM 51.1 °F - 48.9 °F 92% 30.20 in 10.0 mi ESE 9.2 mph - N/A   Overcast
10:46 PM 50.0 °F - 48.2 °F 94% 30.20 in 10.0 mi ESE 8.1 mph - 0.00 in   Light Drizzle
10:53 PM 50.0 °F - 48.9 °F 96% 30.20 in 10.0 mi ESE 8.1 mph - 0.00 in   Light Drizzle
11:53 PM 50.0 °F - 48.9 °F 96% 30.22 in 10.0 mi ESE 5.8 mph - 0.00 in   Overcast